weather.gov     
National Weather Service

Regional Weather Roundup
NWS Homepage
This page is being discontinued on March 12, 2014.
The same data is available at this site. Please update your bookmarks.
Thank you, and we apologize for the inconvenience.
Please send an email to SR-SRH.Webmaster@noaa.gov with any concerns.


Current Version
Previous Version:    01  02  03  04  05  06  07  08  09  10  11  12  13  14  15  16  17  18  19  20  21  22  23  24  25  26  27  28  29  30  
   31  32  33  34  35  36  37  38  39  40  41  42  43  44  45  46  47  48  49  50  51  52  53  54  55  56  57  58  59  60  
[Printable]
705
ASCA44 KEWX 211320
RWRMX

LATIN AMERICA AND CARIBBEAN REGIONAL WEATHER ROUNDUP
NATIONAL WEATHER SERVICE AUSTIN/SAN ANTONIO TX
800 AM CDT TUE OCT 21 2014

NOTE: "FAIR" INDICATED FEW OR NO CLOUDS BELOW 12,000 FEET WITH NO
SIGNIFICANT WEATHER AND/OR OBSTRUCTIONS TO VISIBILITY.

BAJA CALIFORNIA

CITY           SKY/WX    TMP DP  RH WIND       PRES   REMARKS
LORETO         CLEAR     72  61  68 W12       29.77
TIJUANA        CLOUDY    66  57  72 CALM      29.92F

NORTHWESTERN MEXICO

CITY           SKY/WX    TMP DP  RH WIND       PRES   REMARKS
DURANGO        MOCLDY    48  46  93 NW5       30.12R WCI  46
CD. JUAREZ     PTCLDY    55  46  71 CALM      30.02

NORTHEASTERN MEXICO

CITY           SKY/WX    TMP DP  RH WIND       PRES   REMARKS
CHIHUAHUA      MOCLDY    57  57 100 N8        30.09  FOG
MATAMOROS      PTCLDY    72  72 100 CALM      29.94
MONCLOVA       CLOUDY    68  63  83 N5        29.96S FOG
MONTERREY      MOCLDY    66  66 100 NW3       29.99R
NUEVO LAREDO   PTCLDY    72  66  83 NE5       29.99
PIEDRAS NEGRAS MOCLDY    70  66  88 SE7       30.01S
REYNOSA        MOCLDY    68  66  94 N5        29.95
SALTILLO       FOG       57  52  82 CALM      30.14R VSB 1/2
TORREON        MOCLDY    64  55  72 CALM      30.01R
CD. VICTORIA   MOCLDY    66  66 100 W3        29.95

WESTERN MEXICO

CITY           SKY/WX    TMP DP  RH WIND       PRES   REMARKS
AGUASCALIENTES PTCLDY    57  50  77 N3        30.15
COLIMA         MOCLDY    70  68  94 CALM      29.87R FOG
DEL BAJIO      MOCLDY    59  57  94 NE3       30.16R
GUADALAJARA    MOCLDY    63  57  82 NE3       30.04
MANZANILLO     MOCLDY    77  75  94 N7        29.69
MAZATLAN       CLEAR     70  66  88 N7        29.74S
P. VALLARTA    CLOUDY    77  73  88 CALM      29.75R
URUAPAN        CLOUDY    61  61 100 CALM      30.03R
ZACATECAS      MOCLDY    54  46  76 CALM      30.16S

CENTRAL MEXICO

CITY           SKY/WX    TMP DP  RH WIND       PRES   REMARKS
CUERNAVACA     MOCLDY    63  63 100 CALM      29.99R
MEXICO CITY    PTCLDY    57  54  88 E3        30.21R
MORELIA        MOCLDY    52  52 100 CALM      30.10
POZA RICA      CLOUDY    73  72  94 NW9       29.88S
PUEBLA         MOCLDY    50  48  93 N3        30.18R
QUERETARO      CLOUDY    57  54  88 E6        30.20R
S. LUIS POTOSI CLOUDY    57  55  94 CALM      30.16R FOG
TAMPICO        MOCLDY    73  70  88 N7        29.87R
TOLUCA         FOG       46  43  87 NW5       30.25R VSB 1/2 WCI  44

SOUTHERN MEXICO

CITY           SKY/WX    TMP DP  RH WIND       PRES   REMARKS
ACAPULCO       MOCLDY    77  75  94 CALM      29.75R
B. DE HUATULCO MOCLDY    73  70  88 CALM      29.81
OAXACA         MOCLDY    61  61 100 CALM      30.07R
P. ESCONDIDO   MOCLDY    75  72  88 E12       29.88R
VERACRUZ       MOCLDY    73  70  88 CALM      29.77R
ZIHUATANEJO    MOCLDY    75  70  83 CALM      29.75R

YUCATAN PENINSULA

CITY           SKY/WX    TMP DP  RH WIND       PRES   REMARKS
CAMPECHE       DRIZZLE   77  75  94 CALM      29.78R
CANCUN         PTSUNNY   77  75  94 SE3       29.85R
CHETUMAL       PTSUNNY   82  73  74 E12       29.76R
CD. DEL CARMEN RAIN      75  73  94 CALM      29.79R
COZUMEL        PTSUNNY   70  70 100 E5        29.84R
MERIDA         CLOUDY    73  72  94 E5        29.82R
MINATITLAN     CLOUDY    75  59  57 SW12      29.74
TAPACHULA      CLOUDY    77  75  94 CALM      29.85R
TUX. GUTIERREZ PTSUNNY   70  68  94 CALM      29.87R FOG
VILLAHERMOSA   CLOUDY    77  75  94 CALM      29.79R

CENTRAL AMERICA

CITY           SKY/WX    TMP DP  RH WIND       PRES   REMARKS
BELIZE CITY    TSTM      79  75  89 SE3       29.77R
MANAGUA        MOSUNNY   75  73  94 CALM      29.80S

CARIBBEAN

CITY           SKY/WX    TMP DP  RH WIND       PRES   REMARKS
ARUBA          MOSUNNY   86  77  74 E15       29.89S HX  97
CURACAO        MOSUNNY   82  79  89 SE9       29.92S HX  93
KINGSTON       MOSUNNY   81  73  78 NW10      29.92R
NASSAU         PTSUNNY   81  72  74 CALM      29.98R
SAN JUAN       MOSUNNY   84  75  74 VRB7      29.98R HX  92
SANTO DOMINGO  MOSUNNY   79  75  89 NE6       29.94S
ST. CROIX      MOSUNNY   86  73  66 E14       29.98R HX  93
ST. KITTS      MOSUNNY   86  75  70 NE9       29.97R HX  95
ST. MAARTEN    MOSUNNY   86  73  66 E8        29.97R HX  93

$$





U.S. Dept. of Commerce
NOAA National Weather Service
1325 East West Highway
Silver Spring, MD 20910
E-mail: w-nws.webmaster@noaa.gov
Page last modified: May 16, 2007
NATIONAL WEATHER SERVICE: for Safety, for Work, for Fun - FOR LIFE